User: anonymous   Login
Location: Unspecified
(0.0000°N, 0.0000°E)
Time: 14:47:00
(UTC+00:00)
Language:

Nadezhda 4 - Orbit

View from above orbital plane
View from above orbital plane
View from above satellite
View from above satellite

Ground track
Ground track

The orbit data is extracted from the following two-line orbital elements,

1 23179U 94041A   17206.28135274 +.00000046 +00000-0 +30944-4 0  9992
2 23179 082.9470 279.0534 0035415 176.4029 243.2170 13.76535514156732
Epoch (UTC): 25 July 2017 06:45:08
Eccentricity: 0.0035415
inclination: 82.9470°
perigee height: 950 km
apogee height: 1002 km
right ascension of ascending node: 279.0534°
argument of perigee: 176.4029°
revolutions per day: 13.76535514
mean anomaly at epoch: 243.2170°
orbit number at epoch: 15673

The dashed part of the orbit path shows where the satellite is in the earth's shadow,  

DLR